sat.trackr.live / text

‹ back to catalog

STARLINK-5544

NORAD 55757 · 2023-028S

PAYLOAD ACTIVE UNKNOWN

§ Identity

Operator
Country
US
Launch date
2023-03-03
Launch site
AFWTR
Launch vehicle
Mass (kg)
RCS (m²)

Purposes: comms

External: N2YO · Heavens-Above · Gunter

§ Orbital elements

Epoch: 2026-09-20T22:00:03.000096Z

Period
95.67 min
Inclination
70.0013°
Eccentricity
0.0000787
Mean motion
15.05155142 rev/d
Perigee alt
550.5 km
Apogee alt
551.6 km
Semi-major
6,929.2 km
B*
4.7500e-3
RAAN
112.0997°
Arg perigee
201.2295°
Mean anomaly
261.0471°
Rev number
572

§ Raw data

STARLINK-55441 55757U 23028S   26263.91670139  .00068379  00000+0  47500-2 0  99992 55757  70.0013 112.0997 0000787 201.2295 261.0471 15.05155142  5728

JSON: /api/v1/satellites/55757 · /tle

For live sub-satellite position, see the globe view (requires WebGL).

§ Visibility from observer

Set your observer location to see the next 7 days of passes ≥ 10°. The values pass through the URL so the page stays shareable.

No JS? Fill the form by hand. The geolocation button needs JavaScript.